Destin, FL

7:23 PM CDT on August 25, 2016 (GMT -0500)
Destin-Fort Walton Beach

Weather History for KDTS - August, 2013

Change the Weather History Date:

Tuesday, August 20, 2013

  Actual Average Record
Temperature  
Mean Temperature 80 °F -  
Max Temperature 86 °F 87 °F 95 °F (2006)
Min Temperature 73 °F 73 °F 71 °F (2001)
Cooling Degree Days 14    
Growing Degree Days 30 (Base 50)    
Moisture  
Dew Point 74 °F    
Average Humidity 89    
Maximum Humidity 96    
Minimum Humidity 70    
Precipitation  
Precipitation 0.47 in - - ()
Sea Level Pressure  
Sea Level Pressure 30.05 in    
Wind  
Wind Speed 6 mph (East)    
Max Wind Speed 16 mph    
Max Gust Speed 22 mph    
Visibility 8 miles    
Events Rain , Thunderstorm    
Averages and records for this station are not official NWS values.
T = Trace of Precipitation, MM = Missing Value Source: NWS Daily Summary

Daily Weather History Graph

Daily Weather History Graph

Search for Another Location

Airport or City:

Trip Planner

Search our weather history database for the weather conditions in past years. The results will help you decide how hot, cold, wet, or windy it might be!

Date:

Astronomy

Aug. 20, 2013 Rise Set
Actual Time 6:15 AM CDT 7:22 PM CDT
Civil Twilight 5:50 AM CDT 7:46 PM CDT
Nautical Twilight 5:21 AM CDT 8:16 PM CDT
Astronomical Twilight 4:50 AM CDT 8:47 PM CDT
Moon 6:57 PM CDT (8/20) 5:43 AM CDT (8/20)
Length of Visible Light 13h 56m
Length of Day
13h 06m
Full, 100% of the Moon is Illuminated
Aug 20
Full
Aug 20
Full
Aug 28
Last Quarter
Sep 5
New
Sep 12
First Quarter

Hourly Weather History & Observations

Time (CDT) Temp. Heat Index Dew Point Humidity Pressure Visibility Wind Dir Wind Speed Gust Speed Precip Events Conditions
12:53 AM 79.0 °F - 77.0 °F 94% 30.02 in 10.0 mi ENE 4.6 mph - N/A   Clear
1:53 AM 78.1 °F - 75.9 °F 93% 30.01 in 10.0 mi ENE 5.8 mph - N/A   Clear
2:45 AM 77.0 °F - 75.2 °F 94% 30.01 in 10.0 mi East 5.8 mph - N/A   Partly Cloudy
2:53 AM 77.0 °F - 75.0 °F 94% 30.01 in 10.0 mi ENE 4.6 mph - N/A   Clear
3:53 AM 75.9 °F - 73.9 °F 94% 30.00 in 10.0 mi East 4.6 mph - N/A   Clear
4:53 AM 75.9 °F - 73.9 °F 94% 29.99 in 10.0 mi NE 3.5 mph - N/A   Clear
5:16 AM 75.2 °F - 73.4 °F 94% 29.99 in 10.0 mi NE 3.5 mph - N/A   Partly Cloudy
5:53 AM 75.0 °F - 73.9 °F 96% 30.01 in 10.0 mi Calm Calm - N/A   Clear
6:53 AM 75.9 °F - 73.9 °F 94% 30.03 in 10.0 mi East 4.6 mph - N/A   Clear
7:30 AM 75.2 °F - 73.4 °F 94% 30.04 in 10.0 mi East 4.6 mph - N/A   Scattered Clouds
7:53 AM 78.1 °F - 75.0 °F 90% 30.05 in 10.0 mi ESE 6.9 mph - N/A   Mostly Cloudy
8:46 AM 78.8 °F - 75.2 °F 89% 30.07 in 10.0 mi East 4.6 mph - N/A Thunderstorm Overcast
8:53 AM 78.1 °F - 75.9 °F 93% 30.07 in 10.0 mi ESE 9.2 mph - N/A Thunderstorm Overcast
9:01 AM 78.8 °F - 77.0 °F 94% 30.07 in 10.0 mi East 6.9 mph - N/A   Overcast
9:24 AM 78.8 °F - 75.2 °F 89% 30.08 in 10.0 mi NE 4.6 mph - N/A   Overcast
9:51 AM 78.8 °F - 75.2 °F 89% 30.09 in 10.0 mi SSE 10.4 mph 17.3 mph N/A Thunderstorm Overcast
9:53 AM 75.9 °F - 73.0 °F 91% 30.09 in 10.0 mi South 9.2 mph 17.3 mph N/A Thunderstorm Overcast
9:58 AM 75.2 °F - 73.4 °F 94% 30.09 in 10.0 mi South 8.1 mph 17.3 mph N/A Thunderstorm Overcast
10:08 AM 73.4 °F - 71.6 °F 94% 30.09 in 8.0 mi SSE 12.7 mph - 0.00 in Rain Light Rain
10:53 AM 75.9 °F - 73.0 °F 91% 30.09 in 10.0 mi Calm Calm - N/A   Mostly Cloudy
11:53 AM 82.9 °F 88.8 °F 73.0 °F 72% 30.08 in 10.0 mi Calm Calm - N/A   Clear
12:53 PM 86.0 °F 95.1 °F 75.0 °F 70% 30.05 in 10.0 mi South 5.8 mph - N/A   Clear
1:53 PM 84.0 °F 91.2 °F 73.9 °F 72% 30.05 in 10.0 mi SE 3.5 mph - N/A   Partly Cloudy
2:45 PM 82.4 °F 90.9 °F 77.0 °F 84% 30.05 in 10.0 mi East 8.1 mph - N/A Thunderstorm Mostly Cloudy
2:53 PM 84.0 °F 93.7 °F 77.0 °F 79% 30.05 in 10.0 mi NE 5.8 mph - N/A Thunderstorm Overcast
3:02 PM 84.2 °F 94.1 °F 77.0 °F 79% 30.05 in 10.0 mi ENE 6.9 mph - N/A Thunderstorm Mostly Cloudy
3:18 PM 82.4 °F 89.5 °F 75.2 °F 79% 30.06 in 10.0 mi East 9.2 mph 17.3 mph N/A Thunderstorm Thunderstorm
3:35 PM 77.0 °F - 69.8 °F 78% 30.05 in 2.5 mi SE 16.1 mph 21.9 mph 0.06 in Rain , Thunderstorm Light Thunderstorms and Rain
3:38 PM 75.2 °F - 69.8 °F 83% 30.06 in 1.2 mi SE 16.1 mph - 0.14 in Rain , Thunderstorm Heavy Thunderstorms and Rain
3:42 PM 75.2 °F - 71.6 °F 89% 30.06 in 0.8 mi SE 8.1 mph - 0.21 in Rain , Thunderstorm Heavy Thunderstorms and Rain
3:51 PM 77.0 °F - 73.4 °F 89% 30.06 in 1.5 mi Variable 6.9 mph - 0.29 in Rain , Thunderstorm Heavy Rain
3:53 PM 77.0 °F - 73.0 °F 88% 30.06 in 1.8 mi SSE 9.2 mph - 0.31 in Rain , Thunderstorm Heavy Rain
4:02 PM 75.2 °F - 71.6 °F 89% 30.06 in 2.5 mi SE 8.1 mph - 0.03 in Rain , Thunderstorm Heavy Rain
4:10 PM 75.2 °F - 71.6 °F 89% 30.07 in 3.0 mi SSE 3.5 mph - 0.05 in Rain , Thunderstorm Rain
4:53 PM 75.9 °F - 73.0 °F 91% 30.08 in 4.0 mi WSW 6.9 mph - 0.12 in Rain , Thunderstorm Thunderstorms and Rain
5:12 PM 73.4 °F - 71.6 °F 94% 30.06 in 7.0 mi SW 6.9 mph - 0.02 in Rain , Thunderstorm Light Rain
5:37 PM 75.2 °F - 71.6 °F 89% 30.05 in 9.0 mi NW 3.5 mph - 0.03 in Rain Light Rain
5:53 PM 75.0 °F - 71.1 °F 87% 30.05 in 10.0 mi NW 3.5 mph - 0.04 in Rain Light Rain
6:53 PM 75.9 °F - 73.0 °F 91% 30.04 in 10.0 mi North 3.5 mph - 0.00 in   Clear
7:53 PM 75.9 °F - 73.9 °F 94% 30.05 in 10.0 mi ENE 4.6 mph - N/A   Clear
8:53 PM 77.0 °F - 73.9 °F 90% 30.07 in 10.0 mi Calm Calm - N/A   Clear
9:53 PM 75.9 °F - 73.9 °F 94% 30.09 in 10.0 mi ENE 4.6 mph - N/A   Clear
10:53 PM 75.9 °F - 72.0 °F 87% 30.10 in 10.0 mi NE 4.6 mph - N/A   Clear
11:53 PM 75.0 °F - 72.0 °F 90% 30.11 in 10.0 mi ENE 5.8 mph - N/A   Clear